Latest Coastal Weather Observations for Hervey Bay

IDQ60701

Issued at 6:35 pm EST Sunday 23 November 2014 (issued every 10 minutes, with the page automatically refreshed every 10 minutes)

About coastal observations | Map of coastal stations | Coastal observations for QLD | Marine services | Other Formats
Station Details ID: 040405 Name: HERVEY BAY AIRPORT Lat: -25.32 Lon: 152.88 Height: 12.98 m
Data from the previous 72 hours. | See also: Recent months at Hervey Bay
Date/Time
EST
Temp

°C
Wind Pressure Rain
since 9am
mm
Weather Cloud Vis
km
Sea
Height
m
Swell
Dir
 
Speed
knots
Gust
knots
hPa Trend Height
m
Period
s
Dir
23/06:30pm 25.8 NNE 9 15 1015.3 - 0.0 - - 10 - - - -
23/06:00pm 25.9 NNE 10 16 1015.0 - 0.0 - - 10 - - - -
23/05:30pm 26.7 NNE 11 16 1014.8 - 0.0 - - 10 - - - -
23/05:00pm 27.2 N 11 16 1014.8 - 0.0 - - 10 - - - -
23/04:30pm 28.0 NNE 11 15 1014.9 - 0.0 - - 10 - - - -
23/04:00pm 28.4 N 9 14 1015.0 - 0.0 - - 10 - - - -
23/03:30pm 28.8 N 9 13 1015.3 - 0.0 - - 10 - - - -
23/03:00pm 29.1 N 10 14 1015.5 - 0.0 - - 10 - - - -
23/02:30pm 29.6 N 10 14 1015.6 - 0.0 - - 10 - - - -
23/02:00pm 29.0 N 10 14 1015.9 - 0.0 - - 10 - - - -
23/01:30pm 29.7 N 9 14 1016.3 - 0.0 - - 10 - - - -
23/01:00pm 29.3 N 9 14 1016.6 - 0.0 - - 10 - - - -
23/12:30pm 29.9 N 8 13 1016.9 - 0.0 - - 10 - - - -
23/12:00pm 29.7 N 10 14 1017.2 - 0.0 - Mostly clear 10 - - - -
23/11:30am 29.6 N 9 12 1017.7 - 0.0 - - 10 - - - -
23/11:00am 28.9 N 9 13 1018.0 - 0.0 - - 10 - - - -
23/10:30am 28.7 NNW 10 14 1018.2 - 0.0 - - 10 - - - -
23/10:00am 28.8 N 8 13 1018.2 - 0.0 - - 10 - - - -
23/09:30am 28.2 N 9 13 1018.4 - 0.0 - - 10 - - - -
23/09:00am 28.1 N 8 13 1018.5 - 0.0 - - 10 - - - -
23/08:30am 27.8 N 8 11 1018.4 - 0.0 - - 10 - - - -
23/08:00am 27.8 NNE 8 12 1018.3 - 0.0 - - 10 - - - -
23/07:30am 27.1 NNE 9 14 1018.2 - 0.0 - - 10 - - - -
23/07:00am 26.5 N 9 13 1018.0 - 0.0 - - 10 - - - -
23/06:30am 26.2 NNE 9 13 1017.5 - 0.0 - Partly cloudy 10 - - - -
23/06:00am 25.6 NNE 10 14 1017.0 - 0.0 - Partly cloudy 10 - - - -
23/05:30am 25.3 NNE 10 13 1016.6 - 0.0 - Cloudy 10 - - - -
23/05:00am 24.6 NNE 10 13 1016.1 - 0.0 - Cloudy 10 - - - -
23/04:30am 24.6 NNE 9 13 1015.8 - 0.0 - Partly cloudy 10 - - - -
23/04:00am 24.8 NNE 9 12 1015.6 - 0.0 - Partly cloudy 10 - - - -
23/03:30am 24.6 NNE 9 13 1015.3 - 0.0 - Partly cloudy 10 - - - -
23/03:00am 24.7 NNE 10 14 1015.1 - 0.0 - Cloudy 10 - - - -
23/02:30am 24.8 NNE 9 13 1015.2 - 0.0 - Partly cloudy 10 - - - -
23/02:00am 24.9 NNE 9 13 1015.2 - 0.0 - Partly cloudy 10 - - - -
23/01:30am 24.7 NNE 9 12 1015.6 - 0.0 - Partly cloudy 10 - - - -
23/01:00am 24.7 NNE 9 13 1015.8 - 0.0 - Partly cloudy 10 - - - -
23/12:30am 25.0 NNE 9 12 1015.9 - 0.0 - Partly cloudy 10 - - - -
23/12:00am 25.1 NNE 10 14 1016.2 - 0.0 - Cloudy 10 - - - -
 
Date/Time
EST
Temp

°C
Wind Pressure Rain
since 9am
mm
Weather Cloud Vis
km
Sea
Height
m
Swell
Dir
 
Speed
knots
Gust
knots
hPa Trend Height
m
Period
s
Dir
22/11:30pm 25.1 N 8 12 1016.3 - 0.0 - Partly cloudy 10 - - - -
22/11:00pm 25.0 N 8 11 1016.5 - 0.0 - Partly cloudy 10 - - - -
22/10:30pm 25.2 NNE 9 14 1016.6 - 0.0 - Partly cloudy 10 - - - -
22/10:00pm 25.2 NNE 9 13 1016.4 - 0.0 - Partly cloudy 10 - - - -
22/09:30pm 25.2 N 8 12 1016.3 - 0.0 - Partly cloudy 10 - - - -
22/09:00pm 25.2 N 8 11 1016.2 - 0.0 - Mostly clear 10 - - - -
22/08:30pm 25.3 N 9 12 1015.9 - 0.0 - - 10 - - - -
22/08:00pm 25.3 N 10 14 1015.4 - 0.0 - - 10 - - - -
22/07:30pm 25.3 N 8 13 1014.8 - 0.0 - - 10 - - - -
22/07:00pm 25.4 N 9 14 1014.6 - 0.0 - - 10 - - - -
22/06:30pm 25.5 N 9 14 1014.1 - 0.0 - - 10 - - - -
22/06:00pm 25.8 N 10 15 1013.7 - 0.0 - - 10 - - - -
22/05:30pm 26.3 N 12 18 1013.5 - 0.0 - - 10 - - - -
22/05:00pm 26.8 N 13 17 1013.1 - 0.0 - - 10 - - - -
22/04:30pm 27.4 N 13 19 1013.1 - 0.0 - - 10 - - - -
22/04:00pm 28.2 N 13 19 1013.2 - 0.0 - Partly cloudy 10 - - - -
22/03:30pm 28.6 N 11 17 1013.2 - 0.0 - Partly cloudy 10 - - - -
22/03:00pm 28.8 N 13 19 1013.5 - 0.0 - Mostly clear 10 - - - -
22/02:30pm 28.3 N 15 20 1013.7 - 0.0 - Partly cloudy 10 - - - -
22/02:00pm 29.0 N 13 19 1014.0 - 0.0 - - 10 - - - -
22/01:30pm 28.7 N 13 19 1014.3 - 0.0 - Partly cloudy 10 - - - -
22/01:00pm 29.1 N 13 19 1014.7 - 0.0 - Partly cloudy 10 - - - -
22/12:30pm 28.8 N 14 19 1015.0 - 0.0 - Partly cloudy 10 - - - -
22/12:00pm 28.5 N 13 18 1015.5 - 0.0 - Cloudy 10 - - - -
22/11:30am 28.2 NNE 14 18 1015.7 - 0.0 - Partly cloudy 10 - - - -
22/11:00am 28.0 N 13 18 1016.1 - 0.0 - Partly cloudy 10 - - - -
22/10:30am 28.1 N 12 17 1016.3 - 0.0 - Partly cloudy 10 - - - -
22/10:00am 27.3 N 13 19 1016.5 - 0.0 - Partly cloudy 10 - - - -
22/09:30am 27.6 N 14 22 1016.4 - 0.0 - Partly cloudy 10 - - - -
22/09:00am 27.3 N 13 18 1016.4 - 0.0 - Cloudy 10 - - - -
22/08:30am 27.3 N 12 18 1016.4 - 0.0 - Partly cloudy 10 - - - -
22/08:00am 27.6 N 11 15 1016.4 - 0.0 - Partly cloudy 10 - - - -
22/07:30am 26.8 N 11 16 1016.4 - 0.0 - Partly cloudy 10 - - - -
22/07:00am 26.8 N 12 17 1016.2 - 0.0 - Partly cloudy 10 - - - -
22/06:30am 25.8 N 12 16 1015.8 - 0.0 - Partly cloudy 10 - - - -
22/06:00am 25.7 N 11 16 1015.4 - 0.0 - Cloudy 10 - - - -
22/05:30am 25.4 N 9 13 1015.0 - 0.0 - Partly cloudy 10 - - - -
22/05:00am 25.1 N 10 14 1014.7 - 0.0 - Partly cloudy 10 - - - -
22/04:30am 25.0 N 8 13 1014.1 - 0.0 - Partly cloudy 10 - - - -
22/04:00am 25.1 N 8 13 1014.0 - 0.0 - Partly cloudy 10 - - - -
22/03:30am 25.1 N 10 15 1013.6 - 0.0 - Partly cloudy 10 - - - -
22/03:00am 25.2 N 12 17 1013.4 - 0.0 - Partly cloudy 10 - - - -
22/02:30am 25.3 N 10 15 1013.4 - 0.0 - Partly cloudy 10 - - - -
22/02:00am 25.2 N 11 17 1013.3 - 0.0 - Partly cloudy 10 - - - -
22/01:30am 25.1 N 10 14 1013.2 - 0.0 - Partly cloudy 10 - - - -
22/01:00am 25.3 N 11 16 1013.6 - 0.0 - Partly cloudy 10 - - - -
22/12:30am 25.3 N 11 16 1013.9 - 0.0 - Partly cloudy 10 - - - -
22/12:27am 25.3 N 11 16 1013.9 - 0.0 - Partly cloudy 10 - - - -
22/12:16am 25.3 N 11 16 1014.1 - 0.0 - Partly cloudy 10 - - - -
22/12:00am 25.4 N 11 15 1014.3 - 0.0 - Cloudy 10 - - - -
 
Date/Time
EST
Temp

°C
Wind Pressure Rain
since 9am
mm
Weather Cloud Vis
km
Sea
Height
m
Swell
Dir
 
Speed
knots
Gust
knots
hPa Trend Height
m
Period
s
Dir
21/11:30pm 25.4 N 11 16 1014.6 - 0.0 - Partly cloudy 10 - - - -
21/11:00pm 25.5 N 11 17 1014.9 - 0.0 - Partly cloudy 10 - - - -
21/10:30pm 25.5 N 11 16 1015.1 - 0.0 - Partly cloudy 10 - - - -
21/10:00pm 25.5 N 12 17 1014.8 - 0.0 - Partly cloudy 10 - - - -
21/09:30pm 25.5 N 12 18 1014.6 - 0.0 - Partly cloudy 10 - - - -
21/09:00pm 25.4 NNE 11 16 1014.3 - 0.0 - Partly cloudy 10 - - - -
21/08:30pm 25.4 NNE 11 16 1014.3 - 0.0 - Partly cloudy 10 - - - -
21/08:00pm 25.4 N 11 15 1014.2 - 0.0 - Partly cloudy 10 - - - -
21/07:30pm 25.6 NNE 10 16 1013.9 - 0.0 - Partly cloudy 10 - - - -
21/07:00pm 25.6 N 11 16 1013.6 - 0.0 - - 10 - - - -
21/06:30pm 25.7 N 11 16 1013.5 - 0.0 - - 10 - - - -
21/06:00pm 25.9 N 12 17 1013.4 - 0.0 - - 10 - - - -
21/05:30pm 26.8 N 12 17 1013.1 - 0.0 - - 10 - - - -
21/05:00pm 27.2 N 12 16 1012.9 - 0.0 - - 10 - - - -
21/04:30pm 27.4 N 13 18 1012.5 - 0.0 - - 10 - - - -
21/04:00pm 27.7 N 14 18 1012.6 - 0.0 - - 10 - - - -
21/03:30pm 28.3 N 13 17 1012.5 - 0.0 - - 10 - - - -
21/03:00pm 29.1 N 12 17 1012.7 - 0.0 - - 10 - - - -
21/02:30pm 28.5 N 13 17 1013.1 - 0.0 - - 10 - - - -
21/02:00pm 29.9 N 13 19 1013.4 - 0.0 - - 10 - - - -
21/01:30pm 28.9 N 11 20 1013.8 - 0.0 - - 10 - - - -
21/01:00pm 29.2 N 13 19 1014.3 - 0.0 - - 10 - - - -
21/12:30pm 28.7 N 13 19 1014.7 - 0.0 - Partly cloudy 10 - - - -
21/12:00pm 28.8 N 13 18 1015.1 - 0.0 - Mostly clear 10 - - - -
21/11:30am 28.7 N 12 19 1015.5 - 0.0 - Partly cloudy 10 - - - -
21/11:00am 28.9 N 11 17 1016.0 - 0.0 - Partly cloudy 10 - - - -
21/10:30am 29.3 N 11 18 1016.1 - 0.0 - Partly cloudy 10 - - - -
21/10:00am 28.2 N 12 15 1016.3 - 0.0 - Partly cloudy 10 - - - -
21/09:30am 28.4 N 11 18 1016.5 - 0.0 - Partly cloudy 10 - - - -
21/09:00am 27.5 N 12 16 1016.5 - 0.0 - Partly cloudy 10 - - - -
21/08:30am 27.0 N 10 15 1016.8 - 0.0 - Partly cloudy 10 - - - -
21/08:00am 26.2 N 11 16 1016.8 - 0.0 - Partly cloudy 10 - - - -
21/07:30am 27.4 N 10 15 1016.6 - 0.0 - Partly cloudy 10 - - - -
21/07:00am 25.8 N 8 11 1016.6 - 0.0 - Partly cloudy 10 - - - -
21/06:30am 25.9 N 7 9 1016.4 - 0.0 - - 10 - - - -
21/06:00am 25.2 N 8 11 1016.2 - 0.0 - Mostly clear 10 - - - -
21/05:30am 24.8 N 7 10 1015.8 - 0.0 - Partly cloudy 10 - - - -
21/05:00am 24.4 N 6 9 1015.5 - 0.0 - Partly cloudy 10 - - - -
21/04:30am 24.6 N 9 13 1015.3 - 0.0 - Partly cloudy 10 - - - -
21/04:00am 24.8 N 8 11 1015.0 - 0.0 - Partly cloudy 10 - - - -
21/03:30am 24.7 N 8 11 1014.8 - 0.0 - Partly cloudy 10 - - - -
21/03:00am 24.7 N 9 11 1014.9 - 0.0 - Mostly clear 10 - - - -
21/02:30am 24.7 N 8 13 1014.9 - 0.0 - Partly cloudy 10 - - - -
21/02:03am 24.9 N 10 14 1014.8 - 0.0 - Partly cloudy 10 - - - -
21/02:00am 24.9 NNE 9 13 1014.9 - 0.0 - Partly cloudy 10 - - - -
21/01:30am 24.9 NNE 10 13 1015.0 - 0.0 - Partly cloudy 10 - - - -
21/01:29am 24.9 NNE 10 13 1015.1 - 0.0 - Partly cloudy 10 - - - -
21/01:00am 24.8 NNE 8 11 1015.4 - 0.0 - Partly cloudy 10 - - - -
21/12:30am 24.8 NNE 8 11 1015.8 - 0.0 - Partly cloudy 10 - - - -
21/12:08am 25.0 NNE 7 11 1015.9 - 0.0 - Partly cloudy 10 - - - -
21/12:00am 25.0 NNE 9 14 1016.1 - 0.0 - Cloudy 10 - - - -
 
Date/Time
EST
Temp

°C
Wind Pressure Rain
since 9am
mm
Weather Cloud Vis
km
Sea
Height
m
Swell
Dir
 
Speed
knots
Gust
knots
hPa Trend Height
m
Period
s
Dir
20/11:30pm 24.9 NNE 9 13 1016.2 - 0.0 - Partly cloudy 10 - - - -
20/11:00pm 25.2 NNE 9 12 1016.6 - 0.0 - Partly cloudy 10 - - - -
20/10:30pm 25.2 NNE 7 10 1016.7 - 0.0 - Partly cloudy 10 - - - -
20/10:00pm 25.1 NNE 8 11 1016.9 - 0.0 - Partly cloudy 10 - - - -
20/09:30pm 25.2 NNE 9 14 1016.8 - 0.0 - Partly cloudy 10 - - - -
20/09:00pm 25.1 NNE 9 13 1016.8 - 0.0 - Partly cloudy 10 - - - -
20/08:30pm 25.4 NNE 8 12 1016.6 - 0.0 - Partly cloudy 10 - - - -
20/08:00pm 25.4 NE 9 11 1016.4 - 0.0 - Partly cloudy 10 - - - -
20/07:30pm 25.6 NE 10 13 1016.2 - 0.0 - Partly cloudy 10 - - - -
20/07:00pm 25.8 NE 9 11 1015.8 - 0.0 - Partly cloudy 10 - - - -

Other Formats:

Comma delimited format used in spreadsheet applications
http://www.bom.gov.au/fwo/IDQ60701/IDQ60701.95565.axf

JavaScript Object Notation format (JSON) in row-major order
http://www.bom.gov.au/fwo/IDQ60701/IDQ60701.95565.json